FW4288 Weather Reports


time (UTC)temp
C
wind
direction
speed
KPH
gust
KPH
rain 1hr
cm
rain 24hr
cm
rain mn
cm
humidity
%
barometer
mb
20260504200514 15 186 3.2 11.3 0.00 0.00 0.00 49 1008.8
20260504200014 15 257 3.2 11.3 0.00 0.00 0.00 49 1008.8
20260504195513 15 289 3.2 11.3 0.00 0.00 0.00 49 1008.8
20260504195013 15 9 3.2 6.4 0.00 0.00 0.00 49 1008.7
20260504194013 15 339 3.2 11.3 0.00 0.00 0.00 51 1008.9
20260504193513 15 81 3.2 16.1 0.00 0.00 0.00 49 1009.0
20260504192513 15 46 3.2 9.7 0.00 0.00 0.00 49 1009.1
20260504192013 15 74 3.2 11.3 0.00 0.00 0.00 49 1009.0
20260504191514 15 50 3.2 11.3 0.00 0.00 0.00 46 1009.0
20260504191014 15 59 3.2 11.3 0.00 0.00 0.00 48 1009.0
20260504185513 15 24 3.2 9.7 0.00 0.00 0.00 48 1009.1
20260504185013 15 263 4.8 14.5 0.00 0.00 0.00 48 1009.0
20260504184514 15 302 4.8 14.5 0.00 0.00 0.00 46 1009.1
20260504184014 15 302 3.2 8.0 0.00 0.00 0.00 47 1009.1
20260504183513 16 325 3.2 12.9 0.00 0.00 0.00 46 1009.1
20260504183013 15 61 4.8 14.5 0.00 0.00 0.00 46 1009.0
20260504182513 15 112 3.2 16.1 0.00 0.00 0.00 50 1009.1
20260504182013 15 116 3.2 16.1 0.00 0.00 0.00 46 1009.2
20260504181514 15 33 3.2 11.3 0.00 0.00 0.00 47 1009.1
20260504181013 14 332 3.2 11.3 0.00 0.00 0.00 49 1009.3
20260504180513 14 315 4.8 14.5 0.00 0.00 0.00 49 1009.4
20260504175513 14 66 4.8 20.9 0.00 0.00 0.00 49 1009.4
20260504175013 15 260 4.8 16.1 0.00 0.00 0.00 50 1009.4
20260504174513 14 323 3.2 16.1 0.00 0.00 0.00 49 1009.4
20260504174013 15 196 3.2 11.3 0.00 0.00 0.00 47 1009.6
20260504173513 15 317 3.2 12.9 0.00 0.00 0.00 49 1009.6
20260504173014 15 110 3.2 12.9 0.00 0.00 0.00 50 1009.6
20260504172513 14 113 3.2 17.7 0.00 0.00 0.00 49 1009.6
20260504172013 13 265 3.2 17.7 0.00 0.00 0.00 51 1009.7
20260504171513 13 299 3.2 9.7 0.00 0.00 0.00 51 1009.8
20260504171013 13 285 3.2 6.4 0.00 0.00 0.00 51 1010.0
20260504170513 13 331 3.2 8.0 0.00 0.00 0.00 51 1009.9
20260504151013 11 95 3.2 9.7 0.00 0.00 0.00 57 1010.7
20260504150513 11 322 4.8 12.9 0.00 0.00 0.00 55 1010.7
20260504140513 12 83 3.2 8.0 0.00 0.00 0.00 52 1010.7
20260504130513 10 247 3.2 8.0 0.00 0.00 0.00 54 1011.1
20260504100514 1 13 0.0 3.2 0.00 0.00 0.00 84 1011.2
20260504081514 3 28 1.6 8.0 0.00 0.00 0.00 80 1011.3
20260504081014 3 157 1.6 14.5 0.00 0.00 0.00 80 1011.3
20260504080514 3 176 1.6 14.5 0.00 0.00 0.00 80 1011.4
20260504050014 4 229 1.6 4.8 0.00 0.03 0.00 71 1012.1
20260504045514 4 242 1.6 6.4 0.00 0.05 0.00 71 1012.0
20260504045015 4 227 1.6 6.4 0.00 0.05 0.00 70 1012.0
20260504044514 4 182 3.2 6.4 0.00 0.05 0.00 71 1012.1
20260504044014 4 235 3.2 6.4 0.00 0.05 0.00 70 1012.0
20260504043014 4 16 1.6 6.4 0.00 0.05 0.00 71 1012.1
20260504042014 4 117 3.2 12.9 0.00 0.05 0.00 69 1012.1
20260504041514 4 225 3.2 14.5 0.00 0.05 0.00 68 1012.1
20260504041014 3 197 3.2 8.0 0.00 0.05 0.00 68 1012.0
20260504040514 3 110 1.6 6.4 0.00 0.05 0.00 68 1011.9
20260504035514 3 165 1.6 9.7 0.00 0.05 0.05 67 1011.8
20260504035014 3 71 1.6 6.4 0.00 0.05 0.05 66 1011.8
20260504034514 3 175 1.6 6.4 0.00 0.05 0.05 67 1011.7
20260504034014 3 145 1.6 6.4 0.00 0.05 0.05 66 1011.8
20260504033514 3 312 1.6 6.4 0.00 0.05 0.05 66 1011.7
20260504032514 3 221 3.2 12.9 0.00 0.05 0.05 66 1011.7
20260504032014 3 207 3.2 12.9 0.00 0.05 0.05 64 1011.7
20260504030514 3 101 1.6 4.8 0.00 0.05 0.05 64 1011.6
20260504030014 3 136 1.6 4.8 0.00 0.05 0.05 63 1011.5
20260504025514 3 122 1.6 8.0 0.00 0.05 0.05 62 1011.4
20260504025014 3 132 1.6 8.0 0.00 0.05 0.05 60 1011.4
20260504024515 4 146 1.6 8.0 0.00 0.05 0.05 60 1011.6
20260504023514 4 130 1.6 9.7 0.00 0.05 0.05 61 1011.7
20260504023014 4 168 3.2 9.7 0.00 0.05 0.05 59 1011.7
20260504022514 4 205 1.6 6.4 0.00 0.05 0.05 59 1011.8
20260504022014 4 153 1.6 8.0 0.00 0.05 0.05 60 1011.8
20260504021514 4 198 3.2 9.7 0.00 0.05 0.05 59 1012.0
20260504021014 4 171 3.2 9.7 0.00 0.05 0.05 60 1012.0
20260504020514 4 235 3.2 9.7 0.00 0.05 0.05 60 1012.0
20260504020015 4 213 1.6 8.0 0.00 0.05 0.05 59 1011.9
20260504015514 4 242 3.2 11.3 0.00 0.05 0.05 59 1011.9
20260504015014 4 150 3.2 11.3 0.00 0.05 0.05 59 1011.8
20260504014514 3 82 3.2 9.7 0.00 0.05 0.05 58 1011.7
20260504014014 3 32 1.6 8.0 0.00 0.05 0.05 61 1011.7
20260504013014 3 109 1.6 4.8 0.00 0.05 0.05 62 1011.7
20260504012514 3 74 1.6 8.0 0.00 0.05 0.05 62 1011.6
20260504012014 3 319 3.2 8.0 0.00 0.05 0.05 59 1011.6
20260504011514 4 221 1.6 9.7 0.00 0.05 0.05 58 1011.4
20260504011014 4 139 1.6 9.7 0.00 0.05 0.05 55 1011.4
20260504010514 4 200 1.6 6.4 0.00 0.05 0.05 56 1011.4
20260504010014 4 152 1.6 3.2 0.00 0.08 0.05 57 1011.2
20260504005514 4 153 3.2 6.4 0.00 0.08 0.05 56 1011.2
20260504005014 4 193 1.6 6.4 0.00 0.08 0.05 54 1011.2
20260504004514 4 280 1.6 6.4 0.00 0.08 0.05 55 1011.2
20260504004014 5 36 3.2 11.3 0.00 0.08 0.05 54 1011.0
20260504003513 5 186 3.2 9.7 0.00 0.08 0.05 55 1010.9
20260504003013 5 32 3.2 12.9 0.00 0.08 0.05 51 1010.7
20260504002513 5 140 3.2 11.3 0.00 0.08 0.05 53 1010.7
20260504001513 5 360 3.2 9.7 0.00 0.08 0.05 54 1010.5
20260504001013 4 303 3.2 9.7 0.00 0.08 0.05 55 1010.4
20260504000513 4 144 1.6 6.4 0.00 0.08 0.05 52 1010.4
20260503235513 5 262 3.2 11.3 0.00 0.08 0.05 55 1010.3
20260503235013 5 38 3.2 11.3 0.00 0.08 0.05 52 1010.3
20260503234513 4 250 1.6 6.4 0.00 0.08 0.05 57 1010.2
20260503234013 5 136 1.6 6.4 0.00 0.08 0.05 56 1010.3
20260503233013 5 271 1.6 6.4 0.00 0.08 0.05 56 1010.2
20260503232513 5 159 1.6 6.4 0.00 0.08 0.05 54 1010.2
20260503232013 5 10 1.6 6.4 0.00 0.08 0.05 51 1010.2
20260503231513 5 13 1.6 6.4 0.00 0.08 0.05 53 1010.0
20260503231013 5 168 1.6 8.0 0.00 0.08 0.05 54 1010.0
20260503230513 5 168 1.6 8.0 0.00 0.08 0.05 55 1010.0
20260503225513 5 261 3.2 14.5 0.00 0.08 0.05 54 1009.9
20260503224513 5 234 3.2 6.4 0.00 0.08 0.05 51 1009.8
20260503224013 6 165 1.6 8.0 0.00 0.08 0.05 53 1009.9
20260503223514 6 120 1.6 4.8 0.00 0.08 0.05 50 1009.8
20260503223013 6 248 3.2 4.8 0.00 0.08 0.05 51 1009.9
20260503222013 6 82 3.2 9.7 0.00 0.08 0.05 50 1009.7
20260503221513 6 174 4.8 11.3 0.00 0.08 0.05 50 1009.7
20260503221013 6 192 4.8 9.7 0.00 0.08 0.05 52 1009.7
20260503220013 6 248 3.2 12.9 0.00 0.10 0.05 52 1009.8
20260503215513 5 245 3.2 17.7 0.00 0.10 0.05 54 1009.8
20260503215013 6 287 3.2 17.7 0.00 0.10 0.05 51 1009.8
20260503214513 6 269 3.2 12.9 0.00 0.10 0.05 53 1009.7
20260503213513 5 92 3.2 11.3 0.00 0.10 0.05 53 1009.7
20260503213013 5 277 3.2 8.0 0.00 0.10 0.05 52 1009.8
20260503212513 6 88 3.2 9.7 0.00 0.10 0.05 51 1009.7
20260503212013 5 279 3.2 9.7 0.00 0.10 0.05 51 1009.7
20260503211513 5 160 3.2 19.3 0.00 0.10 0.05 54 1009.9
20260503211013 5 316 3.2 19.3 0.00 0.10 0.05 53 1009.8
20260503210513 6 202 4.8 12.9 0.00 0.10 0.05 53 1009.8
20260503210013 6 229 4.8 14.5 0.00 0.10 0.05 52 1009.8
20260503205013 5 267 3.2 11.3 0.00 0.10 0.05 53 1009.8
20260503204513 6 349 3.2 12.9 0.00 0.10 0.05 53 1009.8
20260503203513 5 175 4.8 16.1 0.00 0.10 0.05 54 1010.0
20260503203013 5 236 4.8 17.7 0.00 0.10 0.05 53 1009.9
20260503202513 6 304 3.2 17.7 0.00 0.10 0.05 52 1010.0
20260503202013 6 142 3.2 12.9 0.00 0.10 0.05 54 1009.9
20260503201513 5 150 3.2 12.9 0.00 0.10 0.05 55 1009.9
20260503201013 5 86 3.2 8.0 0.00 0.10 0.05 55 1010.0